When you browse on this site, cookies collect data to enhance your experience and personalize the content and advertising you see.
Visit our Privacy Policy to learn more. By continuing to use the site, you agree to this use of cookies and data.
  • In Österreich
  • Länderverzeichnis
  • Für 7 Tage
  • Wassertemperatur
  • Wetterkarte
  • News
  • Widgets
  • user-avatar
    Anmelden

    Stündliche Wetter Karaganka

    Heute, 22 November, Freitag

    Zeit Temperatur Niederschläge Wind Luftdruck Luftfeuchtigkeit
    00:00 -17°C° 0 mm 2 m/S 756 mmHg 85%
    01:00 -16°C° 0 mm 2 m/S 755 mmHg 84%
    02:00 -16°C° 0 mm 2 m/S 755 mmHg 83%
    03:00 -16°C° 0 mm 2 m/S 755 mmHg 81%
    04:00 -16°C° 0 mm 2 m/S 755 mmHg 79%
    05:00 -16°C° 0 mm 2 m/S 754 mmHg 78%
    06:00 -16°C° 0 mm 2 m/S 754 mmHg 77%
    07:00 -14°C° 0 mm 1 m/S 754 mmHg 76%
    08:00 -15°C° 0 mm 2 m/S 754 mmHg 75%
    09:00 -14°C° 0 mm 2 m/S 754 mmHg 75%
    10:00 -13°C° 0 mm 2 m/S 754 mmHg 75%
    11:00 -10°C° 0 mm 1 m/S 754 mmHg 73%
    12:00 -10°C° 0 mm 1 m/S 754 mmHg 71%
    13:00 -9°C° 0 mm 1 m/S 754 mmHg 69%
    14:00 -10°C° 0 mm 1 m/S 753 mmHg 72%
    15:00 -11°C° 0 mm 1 m/S 753 mmHg 74%
    16:00 -11°C° 0 mm 0 m/S 753 mmHg 77%
    17:00 -11°C° 0 mm 0 m/S 753 mmHg 76%
    18:00 -11°C° 0 mm 0 m/S 753 mmHg 74%
    19:00 -11°C° 0 mm 0 m/S 753 mmHg 73%
    20:00 -11°C° 0 mm 0 m/S 753 mmHg 73%
    21:00 -11°C° 0 mm 0 m/S 753 mmHg 72%
    22:00 -11°C° 0 mm 0 m/S 753 mmHg 72%
    23:00 -11°C° 0 mm 0 m/S 753 mmHg 72%

    Morgen, 23 November, Samstag

    Zeit Temperatur Niederschläge Wind Luftdruck Luftfeuchtigkeit
    00:00 -11°C° 0 mm 0 m/S 753 mmHg 73%
    01:00 -11°C° 0 mm 0 m/S 752 mmHg 73%
    02:00 -11°C° 0 mm 1 m/S 753 mmHg 73%
    03:00 -11°C° 0 mm 1 m/S 753 mmHg 74%
    04:00 -11°C° 0 mm 1 m/S 753 mmHg 74%
    05:00 -11°C° 0 mm 1 m/S 752 mmHg 75%
    06:00 -11°C° 0 mm 1 m/S 752 mmHg 75%
    07:00 -11°C° 0 mm 1 m/S 751 mmHg 76%
    08:00 -11°C° 0 mm 1 m/S 752 mmHg 76%
    09:00 -10°C° 0 mm 1 m/S 752 mmHg 76%
    10:00 -9°C° 0 mm 1 m/S 752 mmHg 75%
    11:00 -10°C° 0 mm 2 m/S 751 mmHg 76%
    12:00 -9°C° 0 mm 2 m/S 751 mmHg 77%
    13:00 -9°C° 0 mm 2 m/S 750 mmHg 78%
    14:00 -9°C° 0 mm 2 m/S 750 mmHg 80%
    15:00 -10°C° 0 mm 3 m/S 750 mmHg 82%
    16:00 -12°C° 0 mm 3 m/S 749 mmHg 84%
    17:00 -12°C° 0 mm 3 m/S 749 mmHg 85%
    18:00 -12°C° 0 mm 3 m/S 749 mmHg 87%
    19:00 -12°C° 0 mm 4 m/S 748 mmHg 89%
    20:00 -12°C° 0 mm 4 m/S 748 mmHg 91%
    21:00 -12°C° 0 mm 4 m/S 748 mmHg 92%
    22:00 -12°C° 0 mm 4 m/S 748 mmHg 94%
    23:00 -12°C° 0 mm 3 m/S 747 mmHg 93%

    übermorgen, 24 November, Sonntag

    Zeit Temperatur Niederschläge Wind Luftdruck Luftfeuchtigkeit
    00:00 -13°C° 0 mm 3 m/S 747 mmHg 93%
    01:00 -13°C° 0 mm 3 m/S 747 mmHg 92%
    02:00 -13°C° 0 mm 3 m/S 747 mmHg 91%
    03:00 -14°C° 0 mm 3 m/S 747 mmHg 90%
    04:00 -14°C° 0 mm 3 m/S 747 mmHg 88%
    05:00 -14°C° 0 mm 3 m/S 747 mmHg 88%
    06:00 -14°C° 0 mm 3 m/S 747 mmHg 88%
    07:00 -13°C° 0 mm 2 m/S 747 mmHg 88%
    08:00 -12°C° 0 mm 2 m/S 747 mmHg 87%
    09:00 -10°C° 0 mm 2 m/S 747 mmHg 86%
    10:00 -10°C° 0 mm 2 m/S 748 mmHg 85%
    11:00 -9°C° 0 mm 2 m/S 748 mmHg 83%
    12:00 -8°C° 0 mm 2 m/S 747 mmHg 82%
    13:00 -7°C° 0 mm 2 m/S 747 mmHg 81%
    14:00 -8°C° 0 mm 2 m/S 747 mmHg 82%
    15:00 -9°C° 0 mm 2 m/S 748 mmHg 83%
    16:00 -9°C° 0 mm 2 m/S 748 mmHg 84%
    17:00 -9°C° 0 mm 2 m/S 748 mmHg 85%
    18:00 -10°C° 0 mm 2 m/S 748 mmHg 85%
    19:00 -9°C° 0 mm 1 m/S 748 mmHg 85%
    20:00 -9°C° 0 mm 1 m/S 748 mmHg 85%
    21:00 -9°C° 0 mm 1 m/S 748 mmHg 84%
    22:00 -9°C° 0 mm 1 m/S 748 mmHg 84%
    23:00 -9°C° 0 mm 1 m/S 748 mmHg 84%

    25 November, Montag

    Zeit Temperatur Niederschläge Wind Luftdruck Luftfeuchtigkeit
    00:00 -9°C° 0 mm 1 m/S 748 mmHg 84%
    01:00 -10°C° 0 mm 1 m/S 748 mmHg 84%
    02:00 -10°C° 0 mm 1 m/S 748 mmHg 85%
    03:00 -10°C° 0 mm 1 m/S 748 mmHg 85%
    04:00 -10°C° 0 mm 1 m/S 748 mmHg 86%
    05:00 -10°C° 0 mm 1 m/S 748 mmHg 86%
    06:00 -12°C° 0 mm 2 m/S 748 mmHg 87%
    07:00 -12°C° 0 mm 2 m/S 748 mmHg 87%
    08:00 -9°C° 0 mm 1 m/S 748 mmHg 87%
    09:00 -9°C° 0 mm 1 m/S 749 mmHg 87%
    10:00 -8°C° 0 mm 1 m/S 749 mmHg 87%
    11:00 -7°C° 0 mm 1 m/S 749 mmHg 86%
    12:00 -7°C° 0 mm 1 m/S 749 mmHg 86%
    13:00 -6°C° 0 mm 1 m/S 749 mmHg 85%
    14:00 -7°C° 0 mm 1 m/S 749 mmHg 86%
    15:00 -8°C° 0 mm 1 m/S 749 mmHg 88%
    16:00 -9°C° 0 mm 1 m/S 749 mmHg 89%
    17:00 -9°C° 0 mm 1 m/S 749 mmHg 89%
    18:00 -10°C° 0 mm 1 m/S 749 mmHg 90%
    19:00 -10°C° 0 mm 1 m/S 749 mmHg 90%
    20:00 -10°C° 0 mm 1 m/S 749 mmHg 91%
    21:00 -10°C° 0 mm 1 m/S 749 mmHg 91%
    22:00 -11°C° 0 mm 0 m/S 749 mmHg 91%
    23:00 -11°C° 0 mm 0 m/S 749 mmHg 92%

    26 November, Dienstag

    Zeit Temperatur Niederschläge Wind Luftdruck Luftfeuchtigkeit
    00:00 -11°C° 0 mm 0 m/S 749 mmHg 92%
    01:00 -11°C° 0 mm 0 m/S 749 mmHg 93%
    02:00 -11°C° 0 mm 0 m/S 749 mmHg 93%
    03:00 -11°C° 0 mm 0 m/S 749 mmHg 94%
    04:00 -12°C° 0 mm 0 m/S 749 mmHg 94%
    05:00 -12°C° 0 mm 1 m/S 748 mmHg 95%
    06:00 -12°C° 0 mm 1 m/S 748 mmHg 95%
    07:00 -12°C° 0 mm 1 m/S 748 mmHg 96%
    08:00 -13°C° 0 mm 2 m/S 748 mmHg 95%
    09:00 -12°C° 0 mm 2 m/S 749 mmHg 95%
    10:00 -12°C° 0 mm 2 m/S 749 mmHg 94%
    11:00 -12°C° 0 mm 3 m/S 748 mmHg 93%
    12:00 -10°C° 0 mm 3 m/S 748 mmHg 92%
    13:00 -10°C° 0 mm 3 m/S 748 mmHg 91%
    14:00 -10°C° 0 mm 3 m/S 748 mmHg 91%
    15:00 -12°C° 0 mm 3 m/S 748 mmHg 92%
    16:00 -12°C° 0 mm 3 m/S 747 mmHg 93%
    17:00 -12°C° 0 mm 3 m/S 747 mmHg 93%
    18:00 -13°C° 0 mm 3 m/S 747 mmHg 93%
    19:00 -14°C° 0 mm 4 m/S 748 mmHg 93%
    20:00 -14°C° 0 mm 4 m/S 747 mmHg 92%
    21:00 -14°C° 0 mm 4 m/S 747 mmHg 91%
    22:00 -15°C° 0 mm 4 m/S 747 mmHg 90%
    23:00 -15°C° 0 mm 4 m/S 747 mmHg 89%

    27 November, Mittwoch

    Zeit Temperatur Niederschläge Wind Luftdruck Luftfeuchtigkeit
    00:00 -15°C° 0 mm 4 m/S 747 mmHg 88%
    01:00 -14°C° 0 mm 4 m/S 747 mmHg 88%
    02:00 -15°C° 0 mm 4 m/S 747 mmHg 87%
    03:00 -15°C° 0 mm 4 m/S 747 mmHg 86%
    04:00 -15°C° 0 mm 4 m/S 747 mmHg 85%
    05:00 -14°C° 0 mm 3 m/S 747 mmHg 84%
    06:00 -14°C° 0 mm 3 m/S 747 mmHg 84%
    07:00 -14°C° 0 mm 3 m/S 748 mmHg 83%
    08:00 -14°C° 0 mm 3 m/S 748 mmHg 82%
    09:00 -13°C° 0 mm 3 m/S 748 mmHg 81%
    10:00 -12°C° 0 mm 3 m/S 748 mmHg 80%
    11:00 -10°C° 0 mm 3 m/S 748 mmHg 80%
    12:00 -11°C° 0 mm 4 m/S 748 mmHg 79%
    13:00 -10°C° 0 mm 4 m/S 748 mmHg 79%
    14:00 -11°C° 0 mm 4 m/S 748 mmHg 81%
    15:00 -11°C° 0 mm 4 m/S 748 mmHg 84%
    16:00 -12°C° 0 mm 4 m/S 748 mmHg 86%
    17:00 -12°C° 0 mm 4 m/S 749 mmHg 86%
    18:00 -14°C° 0 mm 4 m/S 749 mmHg 85%
    19:00 -13°C° 0 mm 3 m/S 749 mmHg 85%
    20:00 -13°C° 0 mm 3 m/S 749 mmHg 84%
    21:00 -13°C° 0 mm 3 m/S 749 mmHg 83%
    22:00 -13°C° 0 mm 3 m/S 749 mmHg 82%
    23:00 -13°C° 0 mm 3 m/S 749 mmHg 81%
    Mehr zeigen